Weather History for Sault Ste Marie, MI

Change the Weather History Date:

Monday, May 13, 2013

  Actual Average Record
Temperature  
Mean Temperature 40 °F 51 °F  
Max Temperature 48 °F 62 °F 84 °F (1900)
Min Temperature 31 °F 40 °F 25 °F (1946)
Degree Days  
Heating Degree Days 25 14  
Month to date heating degree days 173 206  
Since 1 July heating degree days 8021 8275  
Cooling Degree Days 0 0  
Month to date cooling degree days 0 0  
Year to date cooling degree days 0 0  
Moisture  
Dew Point 23 °F    
Average Humidity 55    
Maximum Humidity 78    
Minimum Humidity 31    
Precipitation  
Precipitation 0.00 in 0.08 in 2.34 in (1962)
Month to date precipitation 0.97 1.01  
Year to date precipitation 12.78 8.88  
Sea Level Pressure  
Sea Level Pressure 30.06 in    
Wind  
Wind Speed 8 mph (WNW)    
Max Wind Speed 18 mph    
Max Gust Speed 24 mph    
Visibility 10 miles    
Events      
T = Trace of Precipitation, MM = Missing Value Source: NWS Daily Summary

Daily Weather History Graph

Daily Weather History Graph

Search for Another Location

Airport:

Trip Planner

Search our weather history database for the weather conditions in past years. The results will help you decide how hot, cold, wet, or windy it might be!

Date:

Astronomy

May. 13, 2013 Rise Set
Actual Time 6:05 AM EDT 9:02 PM EDT
Civil Twilight 5:30 AM EDT 9:37 PM EDT
Nautical Twilight 4:45 AM EDT 10:23 PM EDT
Astronomical Twilight 3:51 AM EDT 11:17 PM EDT
Moon 8:49 AM EDT (5/13) No Moon Set
Length of Visible Light 16h 07m
Length of Day
14h 56m
Waxing Crescent, 12% of the Moon is Illuminated
May 13
Waxing Crescent
May 18
First Quarter
May 25
Full
May 31
Last Quarter
Jun 8
New

Hourly Weather History & Observations

Time (EDT) Temp. Windchill Dew Point Humidity Pressure Visibility Wind Dir Wind Speed Gust Speed Precip Events Conditions
12:55 AM 35.1 °F 27.9 °F 28.0 °F 76% 30.00 in 10.0 mi WNW 9.2 mph - N/A   Clear
1:55 AM 35.1 °F 27.9 °F 28.0 °F 76% 30.00 in 10.0 mi NW 9.2 mph - N/A   Partly Cloudy
2:55 AM 34.0 °F 29.8 °F 26.1 °F 73% 30.00 in 10.0 mi WNW 4.6 mph - N/A   Clear
3:55 AM 34.0 °F 29.8 °F 26.1 °F 73% 30.01 in 10.0 mi WNW 4.6 mph - N/A   Clear
4:55 AM 33.1 °F 26.1 °F 25.0 °F 72% 30.02 in 10.0 mi NW 8.1 mph - N/A   Clear
5:55 AM 32.0 °F 26.4 °F 26.1 °F 79% 30.03 in 10.0 mi WNW 5.8 mph - N/A   Clear
6:55 AM 33.1 °F 28.7 °F 27.0 °F 78% 30.05 in 10.0 mi WNW 4.6 mph - N/A   Clear
7:55 AM 36.0 °F 29.6 °F 27.0 °F 70% 30.06 in 10.0 mi NW 8.1 mph - N/A   Clear
8:55 AM 37.9 °F 31.5 °F 26.1 °F 62% 30.08 in 10.0 mi WNW 9.2 mph - N/A   Clear
9:55 AM 39.0 °F 31.8 °F 21.9 °F 50% 30.08 in 10.0 mi WNW 11.5 mph - N/A   Clear
10:55 AM 39.9 °F 31.8 °F 21.0 °F 47% 30.09 in 10.0 mi WNW 15.0 mph 19.6 mph N/A   Clear
11:55 AM 42.1 °F 35.2 °F 21.9 °F 45% 30.11 in 10.0 mi NW 12.7 mph 18.4 mph N/A   Clear
12:55 PM 44.1 °F 37.4 °F 23.0 °F 43% 30.11 in 10.0 mi NW 13.8 mph - N/A   Clear
1:55 PM 46.0 °F 40.2 °F 21.0 °F 37% 30.11 in 10.0 mi NW 12.7 mph 19.6 mph N/A   Clear
2:55 PM 46.9 °F - 19.9 °F 34% 30.09 in 10.0 mi NW 16.1 mph 21.9 mph N/A   Clear
4:55 PM 46.9 °F - 19.0 °F 33% 30.07 in 10.0 mi NNW 12.7 mph 19.6 mph N/A   Clear
5:55 PM 46.9 °F - 17.1 °F 30% 30.07 in 10.0 mi NW 10.4 mph - N/A   Clear
6:55 PM 45.0 °F 41.2 °F 15.1 °F 30% 30.07 in 10.0 mi WNW 6.9 mph - N/A   Clear
8:55 PM 43.0 °F 41.3 °F 19.9 °F 40% 30.04 in 10.0 mi South 3.5 mph - N/A   Clear
9:55 PM 41.0 °F 38.0 °F 23.0 °F 49% 30.04 in 10.0 mi South 4.6 mph - N/A   Clear
10:55 PM 41.0 °F 39.0 °F 24.1 °F 51% 30.05 in 10.0 mi SSW 3.5 mph - N/A   Clear
11:55 PM 39.9 °F 37.8 °F 25.0 °F 55% 30.04 in 10.0 mi South 3.5 mph - N/A   Scattered Clouds